When you browse on this site, cookies collect data to enhance your experience and personalize the content and advertising you see.
Visit our Privacy Policy to learn more. By continuing to use the site, you agree to this use of cookies and data.
  • In Hungary
  • List of Countries
  • For 7 days
  • Water Temperature
  • Satellite Maps
  • Weather Map
  • News
  • Weather Widgets
  • user-avatar
    Login

    Hourly Weather Jinxi

    Today, 18 February, Monday

    Time Temperature Precipitation Wind Pressure Humidity
    00:00 -3°C° 0 mm 2 mps 766 mmHg 32%
    01:00 -3°C° 0 mm 2 mps 766 mmHg 31%
    02:00 -1°C° 0 mm 1 mps 766 mmHg 29%
    03:00 -1°C° 0 mm 1 mps 766 mmHg 29%
    04:00 -1°C° 0 mm 1 mps 766 mmHg 29%
    05:00 -2°C° 0 mm 1 mps 766 mmHg 29%
    06:00 -1°C° 0 mm 1 mps 766 mmHg 29%
    07:00 -1°C° 0 mm 1 mps 766 mmHg 29%
    08:00 -1°C° 0 mm 1 mps 766 mmHg 30%
    09:00 +1°C° 0 mm 1 mps 766 mmHg 27%
    10:00 +1°C° 0 mm 2 mps 766 mmHg 24%
    11:00 +3°C° 0 mm 2 mps 766 mmHg 21%
    12:00 +2°C° 0 mm 3 mps 765 mmHg 21%
    13:00 +3°C° 0 mm 3 mps 765 mmHg 22%
    14:00 +3°C° 0 mm 4 mps 764 mmHg 22%
    15:00 +1°C° 0 mm 4 mps 764 mmHg 28%
    16:00 +1°C° 0 mm 4 mps 764 mmHg 33%
    17:00 0°C° 0 mm 4 mps 764 mmHg 38%
    18:00 -1°C° 0 mm 4 mps 764 mmHg 41%
    19:00 -1°C° 0 mm 4 mps 764 mmHg 44%
    20:00 -2°C° 0 mm 4 mps 764 mmHg 46%
    21:00 -2°C° 0 mm 4 mps 764 mmHg 45%
    22:00 -2°C° 0 mm 4 mps 764 mmHg 44%
    23:00 -2°C° 0 mm 4 mps 764 mmHg 43%

    Tomorrow, 19 February, Tuesday

    Time Temperature Precipitation Wind Pressure Humidity
    00:00 -2°C° 0 mm 4 mps 764 mmHg 47%
    01:00 -1°C° 0 mm 3 mps 764 mmHg 50%
    02:00 -1°C° 0 mm 3 mps 764 mmHg 53%
    03:00 -2°C° 0 mm 3 mps 764 mmHg 57%
    04:00 -2°C° 0 mm 3 mps 764 mmHg 60%
    05:00 -2°C° 0 mm 3 mps 763 mmHg 63%
    06:00 -2°C° 0 mm 3 mps 763 mmHg 65%
    07:00 -2°C° 0 mm 3 mps 764 mmHg 66%
    08:00 -2°C° 0 mm 3 mps 764 mmHg 68%
    09:00 -1°C° 0 mm 4 mps 764 mmHg 62%
    10:00 0°C° 0 mm 4 mps 764 mmHg 57%
    11:00 +3°C° 0 mm 4 mps 764 mmHg 51%
    12:00 +3°C° 0 mm 4 mps 763 mmHg 49%
    13:00 +4°C° 0 mm 4 mps 763 mmHg 46%
    14:00 +4°C° 0 mm 4 mps 763 mmHg 44%
    15:00 +4°C° 0 mm 3 mps 763 mmHg 46%
    16:00 +4°C° 0 mm 3 mps 763 mmHg 47%
    17:00 +5°C° 0 mm 2 mps 763 mmHg 49%
    18:00 +4°C° 0 mm 2 mps 764 mmHg 52%
    19:00 +3°C° 0 mm 2 mps 764 mmHg 55%
    20:00 +2°C° 0 mm 2 mps 765 mmHg 57%
    21:00 +1°C° 0 mm 2 mps 765 mmHg 58%
    22:00 -1°C° 0 mm 2 mps 766 mmHg 60%
    23:00 -1°C° 0 mm 2 mps 766 mmHg 61%

    Day after tomorrow, 20 February, Wednesday

    Time Temperature Precipitation Wind Pressure Humidity
    00:00 -2°C° 0 mm 2 mps 767 mmHg 59%
    01:00 -2°C° 0 mm 2 mps 767 mmHg 57%
    02:00 -2°C° 0 mm 2 mps 767 mmHg 55%
    03:00 -3°C° 0 mm 2 mps 768 mmHg 52%
    04:00 -3°C° 0 mm 2 mps 768 mmHg 49%
    05:00 -3°C° 0 mm 2 mps 768 mmHg 47%
    06:00 -3°C° 0 mm 2 mps 768 mmHg 43%
    07:00 -2°C° 0 mm 2 mps 769 mmHg 39%
    08:00 0°C° 0 mm 1 mps 769 mmHg 36%
    09:00 +2°C° 0 mm 1 mps 769 mmHg 30%
    10:00 +3°C° 0 mm 1 mps 770 mmHg 25%
    11:00 +5°C° 0 mm 1 mps 770 mmHg 19%
    12:00 +6°C° 0 mm 1 mps 770 mmHg 18%
    13:00 +7°C° 0 mm 1 mps 769 mmHg 17%
    14:00 +7°C° 0 mm 1 mps 769 mmHg 16%
    15:00 +7°C° 0 mm 1 mps 769 mmHg 19%
    16:00 +5°C° 0 mm 2 mps 769 mmHg 22%
    17:00 +3°C° 0 mm 3 mps 769 mmHg 26%
    18:00 +3°C° 0 mm 2 mps 770 mmHg 32%
    19:00 +2°C° 0 mm 2 mps 770 mmHg 38%
    20:00 -1°C° 0 mm 2 mps 770 mmHg 44%
    21:00 -1°C° 0 mm 2 mps 770 mmHg 45%
    22:00 +1°C° 0 mm 1 mps 770 mmHg 45%
    23:00 +1°C° 0 mm 1 mps 771 mmHg 46%

    21 February, Thursday

    Time Temperature Precipitation Wind Pressure Humidity
    00:00 0°C° 0 mm 1 mps 770 mmHg 43%
    01:00 0°C° 0 mm 1 mps 770 mmHg 40%
    02:00 0°C° 0 mm 1 mps 770 mmHg 37%
    03:00 0°C° 0 mm 1 mps 770 mmHg 35%
    04:00 0°C° 0 mm 1 mps 770 mmHg 34%
    05:00 0°C° 0 mm 1 mps 770 mmHg 32%
    06:00 -1°C° 0 mm 0 mps 770 mmHg 30%
    07:00 0°C° 0 mm 0 mps 770 mmHg 28%
    08:00 0°C° 0 mm 0 mps 770 mmHg 26%
    09:00 +2°C° 0 mm 0 mps 770 mmHg 24%
    10:00 +4°C° 0 mm 0 mps 770 mmHg 21%
    11:00 +6°C° 0 mm 0 mps 770 mmHg 18%
    12:00 +8°C° 0 mm 1 mps 769 mmHg 18%
    13:00 +8°C° 0 mm 1 mps 769 mmHg 18%
    14:00 +8°C° 0 mm 2 mps 768 mmHg 18%
    15:00 +7°C° 0 mm 2 mps 768 mmHg 21%
    16:00 +6°C° 0 mm 2 mps 768 mmHg 25%
    17:00 +5°C° 0 mm 2 mps 767 mmHg 28%
    18:00 +4°C° 0 mm 2 mps 768 mmHg 31%
    19:00 +3°C° 0 mm 2 mps 768 mmHg 34%
    20:00 +2°C° 0 mm 1 mps 768 mmHg 37%
    21:00 +2°C° 0 mm 1 mps 768 mmHg 38%
    22:00 +2°C° 0 mm 1 mps 768 mmHg 38%
    23:00 +1°C° 0 mm 1 mps 768 mmHg 38%

    22 February, Friday

    Time Temperature Precipitation Wind Pressure Humidity
    00:00 +1°C° 0 mm 1 mps 768 mmHg 37%
    01:00 +1°C° 0 mm 1 mps 768 mmHg 37%
    02:00 +1°C° 0 mm 1 mps 768 mmHg 37%
    03:00 -1°C° 0 mm 2 mps 767 mmHg 37%
    04:00 -1°C° 0 mm 2 mps 767 mmHg 37%
    05:00 -1°C° 0 mm 2 mps 767 mmHg 37%
    06:00 -1°C° 0 mm 2 mps 768 mmHg 35%
    07:00 0°C° 0 mm 3 mps 768 mmHg 33%
    08:00 0°C° 0 mm 3 mps 768 mmHg 31%
    09:00 +2°C° 0 mm 3 mps 768 mmHg 28%
    10:00 +3°C° 0 mm 4 mps 768 mmHg 25%
    11:00 +4°C° 0 mm 4 mps 768 mmHg 22%
    12:00 +5°C° 0 mm 4 mps 768 mmHg 22%
    13:00 +6°C° 0 mm 4 mps 767 mmHg 21%
    14:00 +6°C° 0 mm 5 mps 767 mmHg 20%
    15:00 +6°C° 0 mm 4 mps 767 mmHg 21%
    16:00 +5°C° 0 mm 4 mps 767 mmHg 23%
    17:00 +5°C° 0 mm 4 mps 767 mmHg 24%
    18:00 +4°C° 0 mm 4 mps 767 mmHg 26%
    19:00 +4°C° 0 mm 4 mps 767 mmHg 29%
    20:00 +3°C° 0 mm 4 mps 768 mmHg 31%
    21:00 +1°C° 0 mm 4 mps 768 mmHg 32%
    22:00 +1°C° 0 mm 4 mps 768 mmHg 34%
    23:00 +1°C° 0 mm 4 mps 768 mmHg 36%

    23 February, Saturday

    Time Temperature Precipitation Wind Pressure Humidity
    00:00 0°C° 0 mm 4 mps 768 mmHg 37%
    01:00 0°C° 0 mm 4 mps 767 mmHg 38%
    02:00 0°C° 0 mm 4 mps 767 mmHg 39%
    03:00 -1°C° 0 mm 4 mps 767 mmHg 40%
    04:00 -1°C° 0 mm 4 mps 767 mmHg 41%
    05:00 -2°C° 0 mm 4 mps 767 mmHg 42%
    06:00 0°C° 0 mm 3 mps 767 mmHg 41%
    07:00 0°C° 0 mm 3 mps 767 mmHg 40%
    08:00 +1°C° 0 mm 2 mps 767 mmHg 39%
    09:00 +3°C° 0 mm 2 mps 767 mmHg 33%
    10:00 +5°C° 0 mm 2 mps 767 mmHg 27%
    11:00 +6°C° 0 mm 2 mps 766 mmHg 22%
    12:00 +7°C° 0 mm 2 mps 766 mmHg 20%
    13:00 +8°C° 0 mm 2 mps 765 mmHg 19%
    14:00 +9°C° 0 mm 2 mps 764 mmHg 17%
    15:00 +8°C° 0 mm 2 mps 764 mmHg 21%
    16:00 +7°C° 0 mm 2 mps 764 mmHg 24%
    17:00 +5°C° 0 mm 3 mps 764 mmHg 28%
    18:00 +4°C° 0 mm 3 mps 764 mmHg 32%
    19:00 +2°C° 0 mm 3 mps 765 mmHg 37%
    20:00 +2°C° 0 mm 2 mps 765 mmHg 41%
    21:00 +1°C° 0 mm 3 mps 765 mmHg 43%
    22:00 0°C° 0 mm 3 mps 765 mmHg 45%
    23:00 0°C° 0 mm 3 mps 765 mmHg 46%
    Show more